Plymouth, NH

12:21 AM EST on December 18, 2017 (GMT -0500)
Plymouth

Weather History for K1P1 - February, 2013

Change the Weather History Date:

Thursday, February 14, 2013

  Actual Average (KLCI) Record (KLCI)
Temperature  
Mean Temperature 29 °F -  
Max Temperature 36 °F 31 °F 50 °F (1984)
Min Temperature 22 °F 10 °F -14 °F (2016)
Degree Days  
Heating Degree Days 36    
Moisture  
Dew Point 20 °F    
Average Humidity 75    
Maximum Humidity 91    
Minimum Humidity 46    
Precipitation  
Precipitation 0.00 in - - ()
Sea Level Pressure  
Sea Level Pressure 29.86 in    
Wind  
Wind Speed 2 mph (WNW)    
Max Wind Speed 12 mph    
Max Gust Speed 18 mph    
Visibility 10 miles    
Events      
Averages and records for this station are not official NWS values.
T = Trace of Precipitation, MM = Missing Value Source: NWS Daily Summary

Daily Weather History Graph

Daily Weather History Graph

Search for Another Location

Airport or City:

Trip Planner

Search our weather history database for the weather conditions in past years. The results will help you decide how hot, cold, wet, or windy it might be!

Date:

Astronomy

Feb. 14, 2013 Rise Set
Actual Time 6:46 AM EST 5:16 PM EST
Civil Twilight 6:17 AM EST 5:45 PM EST
Nautical Twilight 5:43 AM EST 6:19 PM EST
Astronomical Twilight 5:10 AM EST 6:52 PM EST
Moon 8:36 AM EST (2/14) 10:28 PM EST (2/14)
Length of Visible Light 11h 28m
Length of Day
10h 29m
Waxing Crescent, 21% of the Moon is Illuminated
Feb 14
Waxing Crescent
Feb 17
First Quarter
Feb 25
Full
Mar 4
Last Quarter
Mar 11
New

Hourly Weather History & Observations

Time (EST) Temp. Windchill Dew Point Humidity Pressure Visibility Wind Dir Wind Speed Gust Speed Precip Events Conditions
12:15 AM 25.3 °F - 22.1 °F 87% 29.72 in 10.0 mi Calm Calm - N/A   Unknown
12:35 AM 24.4 °F - 21.6 °F 89% 29.72 in 10.0 mi Calm Calm - N/A   Unknown
12:55 AM 24.4 °F - 21.9 °F 90% 29.70 in 10.0 mi Calm Calm - N/A   Unknown
1:15 AM 24.8 °F - 21.6 °F 87% 29.69 in 10.0 mi Calm Calm - N/A   Unknown
1:35 AM 24.8 °F - 21.7 °F 88% 29.71 in 10.0 mi Calm Calm - N/A   Unknown
1:55 AM 24.3 °F - 21.7 °F 90% 29.74 in 10.0 mi Calm Calm - N/A   Unknown
2:15 AM 25.3 °F - 21.9 °F 87% 29.75 in 10.0 mi Calm Calm - N/A   Unknown
2:35 AM 23.5 °F - 20.8 °F 89% 29.75 in 10.0 mi Calm Calm - N/A   Unknown
2:55 AM 23.5 °F - 21.0 °F 90% 29.75 in 10.0 mi Calm Calm - N/A   Unknown
3:15 AM 23.4 °F - 21.0 °F 91% 29.75 in 10.0 mi Calm Calm - N/A   Unknown
3:35 AM 24.6 °F - 21.4 °F 87% 29.75 in 10.0 mi Calm Calm - N/A   Unknown
3:55 AM 23.2 °F - 20.8 °F 91% 29.76 in 10.0 mi Calm Calm - N/A   Unknown
4:15 AM 23.7 °F - 21.0 °F 89% 29.76 in 10.0 mi Calm Calm - N/A   Unknown
4:55 AM 24.4 °F - 20.8 °F 86% 29.77 in 10.0 mi Calm Calm - N/A   Unknown
5:15 AM 23.9 °F - 21.4 °F 90% 29.77 in 10.0 mi Calm Calm - N/A   Unknown
5:35 AM 23.9 °F - 21.2 °F 89% 29.77 in 10.0 mi Calm Calm - N/A   Unknown
5:55 AM 24.6 °F - 21.6 °F 88% 29.78 in 10.0 mi Calm Calm - N/A   Unknown
6:15 AM 24.4 °F - 21.6 °F 89% 29.79 in 10.0 mi Calm Calm - N/A   Unknown
6:35 AM 24.1 °F - 21.6 °F 90% 29.80 in 10.0 mi Calm Calm - N/A   Unknown
6:55 AM 24.4 °F - 21.6 °F 89% 29.81 in 10.0 mi Calm Calm - N/A   Unknown
7:15 AM 24.6 °F - 21.4 °F 87% 29.81 in 10.0 mi Calm Calm - N/A   Unknown
7:35 AM 25.2 °F - 21.6 °F 86% 29.82 in 10.0 mi Calm Calm - N/A   Unknown
7:55 AM 25.3 °F - 21.2 °F 84% 29.83 in 10.0 mi Calm Calm - N/A   Unknown
8:15 AM 26.1 °F - 21.4 °F 82% 29.83 in 10.0 mi Calm Calm - N/A   Unknown
8:35 AM 26.6 °F - 21.9 °F 82% 29.84 in 10.0 mi Calm Calm - N/A   Unknown
8:55 AM 27.3 °F - 22.3 °F 81% 29.84 in 10.0 mi Calm Calm - N/A   Unknown
9:15 AM 31.1 °F 24.5 °F 23.0 °F 72% 29.84 in 10.0 mi WNW 6.9 mph - N/A   Unknown
9:35 AM 32.2 °F 25.8 °F 22.8 °F 68% 29.86 in 10.0 mi West 6.9 mph - N/A   Unknown
9:55 AM 32.2 °F 24.4 °F 23.0 °F 69% 29.86 in 10.0 mi West 9.2 mph - N/A   Unknown
10:15 AM 32.5 °F 23.7 °F 22.3 °F 66% 29.87 in 10.0 mi WNW 11.5 mph - N/A   Unknown
10:35 AM 33.4 °F 24.8 °F 19.8 °F 57% 29.87 in 10.0 mi NW 11.5 mph 16.1 mph N/A   Unknown
10:55 AM 33.3 °F 25.1 °F 19.2 °F 56% 29.88 in 10.0 mi NW 10.4 mph 17.3 mph N/A   Unknown
11:15 AM 33.4 °F 25.4 °F 19.4 °F 56% 29.88 in 10.0 mi WNW 10.4 mph - N/A   Unknown
11:35 AM 33.6 °F 27.5 °F 19.6 °F 56% 29.88 in 10.0 mi West 6.9 mph - N/A   Unknown
11:55 AM 33.8 °F 25.8 °F 19.4 °F 56% 29.88 in 10.0 mi West 10.4 mph - N/A   Unknown
12:15 PM 34.3 °F 27.7 °F 19.8 °F 55% 29.88 in 10.0 mi West 8.1 mph - N/A   Unknown
12:35 PM 34.7 °F 28.1 °F 19.2 °F 53% 29.88 in 10.0 mi West 8.1 mph - N/A   Unknown
12:55 PM 34.9 °F 27.7 °F 19.0 °F 52% 29.87 in 10.0 mi West 9.2 mph - N/A   Unknown
1:15 PM 35.6 °F 27.5 °F 19.0 °F 51% 29.87 in 10.0 mi WNW 11.5 mph 18.4 mph N/A   Unknown
1:35 PM 35.8 °F 28.8 °F 18.9 °F 50% 29.86 in 10.0 mi NW 9.2 mph - N/A   Unknown
1:55 PM 36.1 °F 31.4 °F 18.1 °F 48% 29.86 in 10.0 mi NNW 5.8 mph 16.1 mph N/A   Unknown
2:15 PM 36.5 °F 32.7 °F 18.3 °F 48% 29.86 in 10.0 mi West 4.6 mph - N/A   Unknown
2:35 PM 36.5 °F 31.0 °F 17.8 °F 47% 29.86 in 10.0 mi West 6.9 mph 16.1 mph N/A   Unknown
3:15 PM 36.9 °F 31.4 °F 17.6 °F 46% 29.87 in 10.0 mi West 6.9 mph - N/A   Unknown
3:35 PM 36.7 °F 29.9 °F 17.8 °F 46% 29.88 in 10.0 mi West 9.2 mph - N/A   Unknown
3:55 PM 36.7 °F 32.9 °F 17.6 °F 46% 29.88 in 10.0 mi West 4.6 mph - N/A   Unknown
4:15 PM 36.5 °F - 17.4 °F 46% 29.89 in 10.0 mi Calm Calm - N/A   Unknown
4:35 PM 36.1 °F 33.5 °F 17.6 °F 47% 29.89 in 10.0 mi West 3.5 mph - N/A   Unknown
4:55 PM 33.4 °F - 19.0 °F 56% 29.90 in 10.0 mi Calm Calm - N/A   Unknown
5:15 PM 30.2 °F - 20.7 °F 68% 29.91 in 10.0 mi Calm Calm - N/A   Unknown
5:35 PM 28.8 °F - 20.5 °F 71% 29.92 in 10.0 mi Calm Calm - N/A   Unknown
6:15 PM 26.6 °F - 20.3 °F 77% 29.93 in 10.0 mi Calm Calm - N/A   Unknown
6:35 PM 26.4 °F - 20.3 °F 78% 29.94 in 10.0 mi Calm Calm - N/A   Unknown
6:55 PM 26.1 °F - 20.3 °F 79% 29.94 in 10.0 mi Calm Calm - N/A   Unknown
7:15 PM 25.7 °F - 20.3 °F 80% 29.94 in 10.0 mi Calm Calm - N/A   Unknown
7:35 PM 25.0 °F - 20.1 °F 82% 29.95 in 10.0 mi Calm Calm - N/A   Unknown
7:55 PM 24.4 °F - 19.8 °F 82% 29.95 in 10.0 mi Calm Calm - N/A   Unknown
8:15 PM 23.9 °F - 19.8 °F 84% 29.95 in 10.0 mi Calm Calm - N/A   Unknown
8:35 PM 22.8 °F - 19.2 °F 86% 29.95 in 10.0 mi Calm Calm - N/A   Unknown
8:55 PM 22.8 °F - 19.8 °F 88% 29.95 in 10.0 mi Calm Calm - N/A   Unknown
9:15 PM 22.6 °F - 19.4 °F 87% 29.95 in 10.0 mi Calm Calm - N/A   Unknown
9:35 PM 22.8 °F - 19.2 °F 86% 29.95 in 10.0 mi Calm Calm - N/A   Unknown
9:55 PM 22.1 °F - 19.2 °F 89% 29.96 in 10.0 mi Calm Calm - N/A   Unknown
10:15 PM 22.8 °F - 19.4 °F 87% 29.96 in 10.0 mi Calm Calm - N/A   Unknown
10:35 PM 22.6 °F - 19.2 °F 87% 29.96 in 10.0 mi Calm Calm - N/A   Unknown
10:55 PM 22.5 °F - 19.2 °F 87% 29.95 in 10.0 mi Calm Calm - N/A   Unknown
11:15 PM 22.8 °F - 19.2 °F 86% 29.96 in 10.0 mi Calm Calm - N/A   Unknown
11:35 PM 22.5 °F - 19.4 °F 88% 29.96 in 10.0 mi Calm Calm - N/A   Unknown
11:55 PM 22.6 °F - 18.7 °F 85% 29.95 in 10.0 mi Calm Calm - N/A   Unknown